{"data":{"norad_id":64606,"intl_designator":"2025-137N","name":"STARLINK-34073","alt_names":[],"object_type":"PAYLOAD","status":"ACTIVE","operator":null,"country":"US","launch_date":"2025-06-25","launch_site_code":"AFETR","launch_vehicle":null,"mission":null,"orbit_class":"UNKNOWN","rcs_meters":null,"size_class":null,"mass_kg":null,"dimensions":null,"purposes":["comms"],"wikipedia_slug":null,"has_3d_model":false,"image_url":null,"decayed_at":null,"tle_current":{"epoch":"2026-05-24T19:41:39.994656Z","epoch_age_seconds":90652,"freshness":"FRESH","line1":"1 64606U 25137N   26144.82060179  .00019033  00000+0  65289-3 0  9998","line2":"2 64606  53.1597 341.4158 0001148  50.0996 310.0106 15.30209372 52272","mean_motion":15.30209372,"eccentricity":0.0001148,"inclination_deg":53.1597,"raan_deg":341.4158,"arg_perigee_deg":50.0996,"mean_anomaly_deg":310.0106,"bstar":0.00065289,"rev_number":5227,"period_min":94.104769343943,"perigee_km":474.40032485434,"apogee_km":475.97384806459,"semimajor_km":6853.3240864595,"source":"CELESTRAK","updated_at":"2026-05-25T13:38:20.495249Z"}}}